Location: Vancouver
(49.2500°N, 123.1330°W)
Time: 14:36:51
(UTC-08:00)

Iridium 21 - Visible Passes

Search period start: 03 March 2015 00:00
Search period end: 13 March 2015 01:00
Orbit: 776 x 779 km, 86.4° (Epoch: 03 March)

Date Brightness Start Highest point End Pass type
(mag) Time Alt. Az. Time Alt. Az. Time Alt. Az.
03 Mar 7.1 03:08:56 33° ENE 03:08:56 33° ENE 03:12:56 10° NNE visible
03 Mar 6.1 04:49:25 35° WNW 04:49:25 35° WNW 04:53:47 10° N visible
04 Mar 7.8 02:35:41 20° ENE 02:35:41 20° ENE 02:38:48 10° NNE visible
04 Mar 5.8 04:16:10 53° NW 04:16:10 53° NW 04:20:28 10° N visible
05 Mar 8.3 02:02:24 12° ENE 02:02:24 12° ENE 02:03:50 10° NE visible
05 Mar 6.0 03:42:53 54° NNE 03:42:53 54° NNE 03:46:57 10° N visible
05 Mar 7.1 05:23:22 16° WNW 05:23:22 16° WNW 05:26:24 10° NNW visible
06 Mar 6.8 03:09:35 38° NE 03:09:35 38° NE 03:13:15 10° NNE visible
06 Mar 6.6 04:50:04 26° WNW 04:50:04 26° WNW 04:53:38 10° NNW visible
07 Mar 7.5 02:36:16 25° NE 02:36:16 25° NE 02:39:18 10° NNE visible
07 Mar 6.3 04:16:45 37° NW 04:16:45 37° NW 04:20:27 10° N visible
08 Mar 8.1 03:02:56 16° ENE 03:02:56 16° ENE 03:04:57 10° NE visible
08 Mar 6.2 04:43:25 45° N 04:43:25 45° N 04:47:03 10° N visible
08 Mar 7.4 06:23:53 12° WNW 06:23:53 12° WNW 06:25:29 10° NW visible
09 Mar 6.7 04:10:04 40° NNE 04:10:04 40° NNE 04:13:28 10° N visible
09 Mar 7.0 05:50:32 19° NW 05:50:32 19° NW 05:53:19 10° NNW visible
10 Mar 7.3 03:36:42 29° NE 03:36:42 29° NE 03:39:40 10° NNE visible
10 Mar 6.7 05:17:10 28° NW 05:17:10 28° NW 05:20:21 10° NNW visible
11 Mar 7.9 03:03:19 19° NE 03:03:19 19° NE 03:05:36 10° NNE visible
11 Mar 6.5 04:43:47 36° NNW 04:43:47 36° NNW 04:47:05 10° N visible
12 Mar 8.3 02:29:55 12° NE 02:29:55 12° NE 02:30:55 10° NE visible
12 Mar 6.6 04:10:24 38° N 04:10:24 38° N 04:13:36 10° N visible
12 Mar 7.4 05:50:52 14° NW 05:50:52 14° NW 05:52:46 10° NNW visible
